Meteo Giornale » Osservazioni meteo Italia » Gioia Del Colle

ore: 06:55 - Osservazioni Meteo Gioia Del Colle
Lat. 40° 46' N Lon. 16° 56' E Alt. 345 metri s.l.m.

sereno Europe/Rome

21 °C

Sereno

Temp. 24 Ore

20 °C

32 °C

Nord

3.7 Km/h

Dew point 19 °C

Umidità 88 %

Visibilità  10 Km

Il sole sorge alle ore 06:04

Il sole tramonta alle ore 19:48

Data e Ora Cielo e Fenomeni T °C DP °C Um. % Pres. hPa Vis. km Vento km/h
Oggi h: 06:55 sereno Sereno 21 19 88 1013 10 N 3.7
Oggi h: 05:55 sereno Sereno 20 18 88 1013 10 S 7.4
Oggi h: 04:55 sereno Sereno 20 18 88 1014 10 N 3.7
Oggi h: 03:55 sereno Sereno 21 19 88 1014 10 N 3.7
Oggi h: 02:55 sereno Sereno 21 18 82 1014 10 N 3.7
Oggi h: 00:55 sereno Sereno 22 18 78 1014 10 N 3.7
Ieri h: 23:55 sereno Sereno 24 18 69 1014 10 N 3.7
Ieri h: 22:55 sereno Sereno 24 18 69 1014 10 S/SO 7.4
Ieri h: 21:55 sereno Sereno 25 17 61 1014 10 N 3.7
Ieri h: 20:55 sereno Sereno 26 17 57 1013 10 S 9.3
Ieri h: 19:55 sereno Sereno 28 17 51 1013 10 N 3.7
Ieri h: 18:55 sereno Sereno 29 16 45 1013 10 N/NE 11.1
Ieri h: 17:55 sereno Sereno 31 16 40 1013 10 N/NO 13
Ieri h: 16:55 sereno Sereno 31 16 40 1013 10 N 16.7
Ieri h: 15:55 poco_nuvoloso Poco Nuvoloso 32 15 35 1013 10 N/NO 18.5
Ieri h: 14:55 poco_nuvoloso Poco Nuvoloso 31 15 37 1013 10 N/NO 11.1
Ieri h: 13:55 nuvoloso Nuvoloso 31 18 45 1013 10 N 11.1
Ieri h: 12:55 molto_nuvoloso Molto Nuvoloso 30 16 42 1013 10 N/NE 11.1
Ieri h: 11:55 nuvoloso Nuvoloso 30 17 45 1013 10 NO 11.1
Ieri h: 10:55 sereno Sereno 29 18 51 1013 10 N 5.5
Ieri h: 09:55 sereno Sereno 28 19 58 1013 10 NO 7.4
Ieri h: 08:55 sereno Sereno 27 19 61 1013 10 O/NO 9.3
Ieri h: 07:55 sereno Sereno 25 20 73 1013 10 O/NO 7.4